Lewisburg, WV

12:55 AM EDT on April 21, 2018 (GMT -0400)
Greenbrier Valley

Weather History for KLWB - January, 2011

Change the Weather History Date:

Saturday, January 1, 2011

  Actual Average Record
Temperature  
Mean Temperature 38 °F -  
Max Temperature 42 °F 42 °F 63 °F (1985)
Min Temperature 33 °F 24 °F 0 °F (2018)
Degree Days  
Heating Degree Days 28    
Moisture  
Dew Point 37 °F    
Average Humidity 96    
Maximum Humidity 100    
Minimum Humidity 93    
Precipitation  
Precipitation 0.04 in - - ()
Sea Level Pressure  
Sea Level Pressure 30.07 in    
Wind  
Wind Speed 3 mph (NE)    
Max Wind Speed 8 mph    
Max Gust Speed -    
Visibility 5 miles    
Events Fog , Rain    
Averages and records for this station are not official NWS values.
T = Trace of Precipitation, MM = Missing Value Source: NWS Daily Summary

Daily Weather History Graph

Daily Weather History Graph

Search for Another Location

Airport or City:

Astronomy

Jan. 01, 2011 Rise Set
Actual Time 7:37 AM EST 5:13 PM EST
Civil Twilight 7:07 AM EST 5:42 PM EST
Nautical Twilight 6:35 AM EST 6:15 PM EST
Astronomical Twilight 6:03 AM EST 6:47 PM EST
Moon 5:08 AM EST (1/1) 2:49 PM EST (1/1)
Length of Visible Light 10h 34m
Length of Day
9h 35m
Waning Crescent, 8% of the Moon is Illuminated
Jan 1
Waning Crescent
Jan 4
New
Jan 12
First Quarter
Jan 19
Full
Jan 26
Last Quarter

Hourly Weather History & Observations

Time (EST) Temp. Windchill Dew Point Humidity Pressure Visibility Wind Dir Wind Speed Gust Speed Precip Events Conditions
12:19 AM 35.6 °F 31.7 °F 33.8 °F 93% 30.15 in 10.0 mi NE 4.6 mph - N/A   Clear
12:39 AM 35.6 °F 31.7 °F 33.8 °F 93% 30.13 in 10.0 mi NNE 4.6 mph - N/A   Clear
1:01 AM 35.6 °F - 33.8 °F 93% 30.14 in 7.0 mi Calm Calm - N/A   Clear
1:19 AM 33.8 °F - 33.8 °F 100% 30.14 in 7.0 mi Calm Calm - N/A   Clear
1:42 AM 33.8 °F 30.8 °F 33.8 °F 100% 30.13 in 7.0 mi NE 3.5 mph - N/A   Clear
1:59 AM 35.6 °F 32.8 °F 33.8 °F 93% 30.13 in 7.0 mi NNE 3.5 mph - N/A   Clear
2:19 AM 35.6 °F 32.8 °F 33.8 °F 93% 30.13 in 10.0 mi NE 3.5 mph - N/A   Clear
2:40 AM 33.8 °F 30.8 °F 33.8 °F 100% 30.11 in 7.0 mi NE 3.5 mph - N/A   Clear
2:59 AM 33.8 °F - 33.8 °F 100% 30.10 in 7.0 mi Calm Calm - N/A   Clear
3:19 AM 35.6 °F - 35.6 °F 100% 30.12 in 10.0 mi Calm Calm - N/A   Clear
3:39 AM 35.6 °F 30.7 °F 33.8 °F 93% 30.10 in 7.0 mi ENE 5.8 mph - N/A   Clear
3:59 AM 35.6 °F - 33.8 °F 93% 30.10 in 7.0 mi Calm Calm - N/A   Clear
4:20 AM 35.6 °F - 33.8 °F 93% 30.10 in 7.0 mi Calm Calm - N/A   Clear
4:39 AM 35.6 °F 31.7 °F 33.8 °F 93% 30.10 in 7.0 mi North 4.6 mph - N/A   Clear
5:01 AM 33.8 °F 30.8 °F 33.8 °F 100% 30.09 in 7.0 mi NNE 3.5 mph - N/A   Clear
5:19 AM 33.8 °F 29.6 °F 33.8 °F 100% 30.09 in 7.0 mi NNE 4.6 mph - N/A   Clear
5:39 AM 33.8 °F - 33.8 °F 100% 30.11 in 7.0 mi Calm Calm - N/A   Scattered Clouds
5:59 AM 35.6 °F 32.8 °F 35.6 °F 100% 30.11 in 7.0 mi ENE 3.5 mph - N/A   Mostly Cloudy
6:19 AM 35.6 °F 32.8 °F 33.8 °F 93% 30.11 in 7.0 mi NNE 3.5 mph - N/A   Scattered Clouds
6:59 AM 35.6 °F 31.7 °F 35.6 °F 100% 30.09 in 7.0 mi NE 4.6 mph - N/A   Mostly Cloudy
7:20 AM 35.6 °F 32.8 °F 35.6 °F 100% 30.10 in 10.0 mi NE 3.5 mph - N/A   Scattered Clouds
7:39 AM 35.6 °F - 35.6 °F 100% 30.11 in 7.0 mi Calm Calm - N/A   Mostly Cloudy
8:00 AM 35.6 °F 32.8 °F 35.6 °F 100% 30.11 in 7.0 mi NE 3.5 mph - N/A   Overcast
8:19 AM 37.4 °F 32.1 °F 35.6 °F 93% 30.10 in 7.0 mi ENE 6.9 mph - N/A   Mostly Cloudy
9:00 AM 37.4 °F - 35.6 °F 93% 30.12 in 7.0 mi Calm Calm - N/A   Mostly Cloudy
9:21 AM 37.4 °F 33.8 °F 35.6 °F 93% 30.10 in 7.0 mi NE 4.6 mph - N/A   Overcast
9:42 AM 37.4 °F 33.8 °F 35.6 °F 93% 30.11 in 7.0 mi NE 4.6 mph - N/A   Mostly Cloudy
9:59 AM 37.4 °F 32.8 °F 35.6 °F 93% 30.12 in 10.0 mi NNE 5.8 mph - N/A   Overcast
10:19 AM 37.4 °F 33.8 °F 35.6 °F 93% 30.12 in 7.0 mi NE 4.6 mph - N/A Rain Light Rain
10:39 AM 39.2 °F - 37.4 °F 93% 30.13 in 7.0 mi Calm Calm - N/A   Drizzle
10:59 AM 39.2 °F 37.0 °F 37.4 °F 93% 30.11 in 5.0 mi NNE 3.5 mph - N/A Rain Light Rain
11:19 AM 39.2 °F - 37.4 °F 93% 30.11 in 5.0 mi Calm Calm - N/A   Drizzle
11:41 AM 37.4 °F - 35.6 °F 93% 30.10 in 2.5 mi Calm Calm - 0.02 in Rain Rain
12:00 PM 39.2 °F 35.9 °F 37.4 °F 93% 30.08 in 3.0 mi NNE 4.6 mph - N/A Rain Light Rain
12:19 PM 39.2 °F 35.9 °F 39.2 °F 100% 30.07 in 5.0 mi NNE 4.6 mph - N/A   Light Drizzle
12:39 PM 39.2 °F - 37.4 °F 93% 30.06 in 4.0 mi Calm Calm - N/A   Light Drizzle
12:59 PM 39.2 °F 37.0 °F 39.2 °F 100% 30.05 in 4.0 mi NE 3.5 mph - N/A Rain Light Rain
1:22 PM 39.2 °F 37.0 °F 37.4 °F 93% 30.03 in 2.5 mi NNE 3.5 mph - 0.01 in Rain Light Rain
1:40 PM 39.2 °F 35.9 °F 37.4 °F 93% 30.02 in 2.0 mi NE 4.6 mph - 0.02 in Rain Light Rain
2:00 PM 39.2 °F 34.2 °F 39.2 °F 100% 30.01 in 2.0 mi North 6.9 mph - N/A   Overcast
2:19 PM 41.0 °F 38.0 °F 39.2 °F 93% 30.01 in 3.0 mi ENE 4.6 mph - N/A   Overcast
2:59 PM 41.0 °F 39.0 °F 39.2 °F 93% 30.01 in 1.5 mi NE 3.5 mph - N/A   Overcast
3:19 PM 42.8 °F 40.1 °F 41.0 °F 93% 29.99 in 1.0 mi ENE 4.6 mph - N/A   Overcast
3:39 PM 42.8 °F 40.1 °F 42.8 °F 100% 29.99 in 1.8 mi NNE 4.6 mph - N/A   Overcast
3:59 PM 42.8 °F 38.0 °F 41.0 °F 93% 29.99 in 1.5 mi ENE 8.1 mph - N/A   Overcast
4:19 PM 42.8 °F 41.1 °F 41.0 °F 93% 30.00 in 0.8 mi NNE 3.5 mph - N/A   Mostly Cloudy
4:39 PM 39.2 °F 37.0 °F 39.2 °F 100% 30.00 in 0.2 mi NE 3.5 mph - N/A Fog Fog
4:59 PM 42.8 °F - 42.8 °F 100% 30.01 in 1.2 mi Calm Calm - N/A   Overcast
5:19 PM 39.2 °F 35.9 °F 39.2 °F 100% 30.01 in 0.5 mi NNE 4.6 mph - N/A Fog Fog
5:40 PM 39.2 °F 37.0 °F 39.2 °F 100% 30.01 in 0.5 mi NNE 3.5 mph - N/A Fog Fog
6:00 PM 39.2 °F - 39.2 °F 100% 30.01 in 0.5 mi Calm Calm - N/A Fog Fog
6:20 PM 41.0 °F - 39.2 °F 93% 30.02 in 0.8 mi Calm Calm - N/A   Overcast
6:46 PM 41.0 °F - 39.2 °F 93% 30.02 in 1.5 mi Calm Calm - N/A   Overcast
7:00 PM 41.0 °F - 39.2 °F 93% 30.03 in 1.0 mi Calm Calm - N/A   Overcast
7:19 PM 39.2 °F 37.0 °F 39.2 °F 100% 30.03 in 0.5 mi NNE 3.5 mph - N/A Fog Fog
7:41 PM 41.0 °F - 39.2 °F 93% 30.03 in 1.0 mi Calm Calm - N/A   Overcast
7:59 PM 39.2 °F - 39.2 °F 100% 30.02 in 0.5 mi Calm Calm - N/A Fog Fog
8:19 PM 41.0 °F - 39.2 °F 93% 30.02 in 1.2 mi Calm Calm - N/A   Overcast
8:39 PM 39.2 °F - 39.2 °F 100% 30.02 in 1.0 mi Calm Calm - N/A   Overcast
8:59 PM 39.2 °F - 39.2 °F 100% 30.02 in 0.5 mi Calm Calm - N/A Fog Fog
9:19 PM 39.2 °F - 39.2 °F 100% 30.02 in 0.8 mi Calm Calm - N/A   Overcast
9:41 PM 39.2 °F - 39.2 °F 100% 30.02 in 0.8 mi Calm Calm - N/A   Overcast
9:59 PM 39.2 °F - 39.2 °F 100% 30.02 in 1.0 mi Calm Calm - N/A   Overcast
10:20 PM 39.2 °F - 39.2 °F 100% 30.01 in 1.0 mi Calm Calm - N/A   Overcast
10:39 PM 39.2 °F - 39.2 °F 100% 30.01 in 1.0 mi Calm Calm - N/A   Overcast
10:59 PM 39.2 °F - 39.2 °F 100% 30.01 in 1.0 mi Calm Calm - N/A   Overcast
11:22 PM 39.2 °F - 39.2 °F 100% 30.01 in 0.8 mi Calm Calm - N/A   Overcast
11:40 PM 39.2 °F - 39.2 °F 100% 30.01 in 0.8 mi Calm Calm - N/A   Drizzle